map of CPH home
Great Circle Mapper logo
CPH - Airport
Location
City:  Copenhagen, Denmark
Near (Alt.):København
Name:København Airport - Kastrup
ICAO / IATA:EKCH / CPH

Details
Type:Airport (Aerodrome, Airfield)
Latitude:55°37'05"N (55.617917)
Longitude:12°39'21"E (12.655972)
Elevation:17 ft (5 m)
Runways:3
Longest:11811 × 148 ft (3600 × 45 m), paved

Time
Time Zone:UTC+1 (DST+2)
Local Time:

Weather
METAR:EKCH 210320Z 23004KT 7000 FEW007 BKN060 09/09 Q1005 NOSIG
TAF:EKCH 202330Z 2100/2124 23008KT 9000 BKN040
TEMPO 2103/2114 4000 -SHRA BR BKN008 SCT020TCU
FM211400 16012KT 6000 -RA SCT010 BKN030
TEMPO 2114/2121 17015G25KT 4000 RA BR BKN008
TEMPO 2121/2124 15015G25KT 4000 RA BKN008 BKN040CB

Related Locations
Nearby:
Farthest:CHT: 11521 mi / 18541 km
Waitangi [Tuuta], Chatham Islands, NZ

Find:

   beyond  
but within

Other Information
Maps:
NOTAMs:
Links:
Sources:

  
flag of Denmark   

Sectional Chart

Flight Planning
at skyvector.com

Satellite Image

Google Maps Satellite View

 

Copyright © 2004-2014 Karl L. Swartz. All rights reserved.
The Great Circle Mapper name and logo are trademarks of the Great Circle Mapper.
All other trademarks mentioned herein belong to their respective owners.
Please see credits for attibutions and further copyright information.

  Follow gcmap on Facebook Follow gcmap on Twitter

hCard Microformat

Geo Microformat